Preview of NWS' New Version of Forecast
This preview is not operational and should not be used for support decisions.

Regional Weather Roundup (RWR)

Issued by National Weather Service (NWS)

                            
000
ASUS46 KPQR 190110
RWROR 

OREGON REGIONAL WEATHER ROUNDUP
NATIONAL WEATHER SERVICE PORTLAND OR
600 PM PDT TUE JUN 18 2019

NOTE: "FAIR" INDICATES FEW OR NO CLOUDS BELOW 12,000 FEET WITH
NO SIGNIFICANT WEATHER AND/OR OBSTRUCTIONS TO VISIBILITY.

ORZ001>013-190200-
NORTHWEST OREGON

  
CITY           SKY/WX    TMP DP  RH WIND       PRES   REMARKS
ASTORIA        CLOUDY    61  50  67 NW14      30.28F                  
TILLAMOOK      MOSUNNY   63  48  59 W22G28    30.28F                  
NEWPORT        SUNNY     59  50  72 N12G17    30.29F                  
PORTLAND       MOSUNNY   70  48  45 NW16      30.20F                  
VANCOUVER WA   MOSUNNY   69  47  45 NW10      30.20S                  
SCAPPOOSE      MOSUNNY   68  48  48 NW9       30.21S                  
HILLSBORO      MOSUNNY   67  47  48 NW14      30.21S                  
AURORA         SUNNY     73  49  42 NW13      30.19F                  
MCMINNVILLE    SUNNY     71  50  47 N13       30.19R                  
SALEM          MOSUNNY   76  51  41 NW12      30.16F                  
CORVALLIS      SUNNY     75  53  46 NW15      30.17F                  
EUGENE         MOSUNNY   79  54  41 NE10      30.16F                  
$$

ORZ021-028-190200-
SOUTHWEST OREGON

  
CITY           SKY/WX    TMP DP  RH WIND       PRES   REMARKS
NORTH BEND     SUNNY     60  50  69 N26G37    30.24S                  
BROOKINGS      SUNNY     82  56  40 NW10      29.98F                  
ROSEBURG       SUNNY     83  50  31 N13       30.12F                  
SEXTON SUMMIT  SUNNY     70  43  37 W3        30.20F                  
GRANTS PASS    FAIR      84  39  20 N12       30.10S                  
MEDFORD        SUNNY     86  42  21 NW15      30.05S                  
$$

ORZ014>016-041-190200-
COLUMBIA GORGE

  
CITY           SKY/WX    TMP DP  RH WIND       PRES   REMARKS
TROUTDALE      MOSUNNY   73  48  41 NW7       30.18F                  
HOOD RIVER     SUNNY     72  41  33 W12G24    30.10F                  
THE DALLES     FAIR      77  42  28 W23G31    30.04F                  
$$

ORZ029>031-041-044-049-050-061>064-502-503-505>511-190200-
EASTERN OREGON

  
CITY           SKY/WX    TMP DP  RH WIND       PRES   REMARKS
MADRAS           N/A     75  32  20 MISG        N/A                   
REDMOND        SUNNY     80  34  19 N8        30.11F                  
BEND           SUNNY     79  32  18 N10G21    30.13S                  
PRINEVILLE     SUNNY     75  25  15 N16G24    30.12S                  
KLAMATH FALLS  SUNNY     82  43  25 NW21      30.11F                  
LAKEVIEW       SUNNY     82  42  24 SE6       30.12F                  
HERMISTON      MOSUNNY   83  47  28 W18G28    29.95F                  
PENDLETON      MOSUNNY   82  46  28 W17       29.98F                  
JOHN DAY       SUNNY     79  36  21 NW14G20   30.08F                  
MEACHAM        MOSUNNY   71  38  29 MISG      30.10S                  
LA GRANDE      PTSUNNY   78  45  30 NW15      30.03F                  
BAKER CITY     PTSUNNY   77  48  35 N17       30.03F                  
BURNS          SUNNY     82  37  20 NW17      30.07F                  
ROME             N/A     87  36  16 N14G22    30.03F                  
ONTARIO        SUNNY     92  42  17 NW9       29.92F                  
$$